• In Hungary
  • List of Countries
  • For 7 days
  • Water Temperature
  • Satellite Maps
  • Weather Map
  • News
  • Weather Widgets
  • user-avatar
    Login

    Hourly Weather Jesenik

    Today, 19 June, Tuesday

    Time Temperature Precipitation Wind Pressure Humidity
    00:00 +15°C° 0 mm 1 mps 726 mmHg 84%
    01:00 +14°C° 0 mm 2 mps 726 mmHg 82%
    02:00 +14°C° 0 mm 2 mps 726 mmHg 83%
    03:00 +14°C° 0 mm 2 mps 726 mmHg 84%
    04:00 +13°C° 0 mm 1 mps 726 mmHg 84%
    05:00 +15°C° 0 mm 1 mps 726 mmHg 80%
    06:00 +18°C° 0 mm 1 mps 727 mmHg 76%
    07:00 +20°C° 0 mm 1 mps 727 mmHg 69%
    08:00 +20°C° 0 mm 2 mps 727 mmHg 66%
    09:00 +21°C° 0 mm 2 mps 727 mmHg 62%
    10:00 +23°C° 0 mm 2 mps 727 mmHg 59%
    11:00 +24°C° 0 mm 2 mps 727 mmHg 59%
    12:00 +24°C° 0 mm 2 mps 727 mmHg 59%
    13:00 +25°C° 0 mm 2 mps 727 mmHg 59%
    14:00 +24°C° 0.1 mm 2 mps 727 mmHg 61%
    15:00 +24°C° 0.1 mm 2 mps 727 mmHg 64%
    16:00 +24°C° 0.1 mm 2 mps 727 mmHg 66%
    17:00 +23°C° 0 mm 2 mps 727 mmHg 71%
    18:00 +21°C° 0 mm 2 mps 727 mmHg 75%
    19:00 +21°C° 0 mm 1 mps 727 mmHg 80%
    20:00 +20°C° 0 mm 1 mps 727 mmHg 82%
    21:00 +19°C° 0 mm 1 mps 728 mmHg 84%
    22:00 +18°C° 0 mm 1 mps 728 mmHg 86%
    23:00 +18°C° 0 mm 1 mps 728 mmHg 87%

    Tomorrow, 20 June, Wednesday

    Time Temperature Precipitation Wind Pressure Humidity
    00:00 +16°C° 0 mm 1 mps 728 mmHg 88%
    01:00 +16°C° 0 mm 1 mps 728 mmHg 89%
    02:00 +15°C° 0 mm 1 mps 728 mmHg 90%
    03:00 +15°C° 0 mm 1 mps 728 mmHg 91%
    04:00 +15°C° 0 mm 1 mps 728 mmHg 91%
    05:00 +16°C° 0 mm 1 mps 728 mmHg 87%
    06:00 +19°C° 0 mm 1 mps 728 mmHg 83%
    07:00 +20°C° 0 mm 1 mps 729 mmHg 79%
    08:00 +22°C° 0 mm 1 mps 729 mmHg 75%
    09:00 +23°C° 0 mm 1 mps 729 mmHg 70%
    10:00 +24°C° 0 mm 1 mps 729 mmHg 66%
    11:00 +25°C° 0.1 mm 1 mps 729 mmHg 65%
    12:00 +25°C° 0.1 mm 1 mps 728 mmHg 64%
    13:00 +26°C° 0.1 mm 1 mps 728 mmHg 62%
    14:00 +26°C° 0 mm 1 mps 728 mmHg 62%
    15:00 +26°C° 0 mm 1 mps 727 mmHg 61%
    16:00 +26°C° 0 mm 1 mps 727 mmHg 60%
    17:00 +25°C° 0 mm 1 mps 727 mmHg 65%
    18:00 +24°C° 0 mm 1 mps 726 mmHg 71%
    19:00 +24°C° 0 mm 1 mps 726 mmHg 76%
    20:00 +22°C° 0 mm 1 mps 726 mmHg 79%
    21:00 +21°C° 0 mm 1 mps 726 mmHg 81%
    22:00 +19°C° 0 mm 1 mps 726 mmHg 84%
    23:00 +19°C° 0 mm 1 mps 725 mmHg 85%

    Day after tomorrow, 21 June, Thursday

    Time Temperature Precipitation Wind Pressure Humidity
    00:00 +19°C° 0 mm 1 mps 725 mmHg 85%
    01:00 +18°C° 0 mm 1 mps 725 mmHg 86%
    02:00 +18°C° 0 mm 1 mps 724 mmHg 86%
    03:00 +18°C° 0 mm 1 mps 724 mmHg 86%
    04:00 +18°C° 0 mm 1 mps 723 mmHg 87%
    05:00 +19°C° 0 mm 2 mps 723 mmHg 83%
    06:00 +20°C° 0 mm 2 mps 723 mmHg 79%
    07:00 +23°C° 0 mm 2 mps 723 mmHg 76%
    08:00 +24°C° 0.2 mm 3 mps 723 mmHg 73%
    09:00 +25°C° 0.2 mm 4 mps 722 mmHg 71%
    10:00 +26°C° 0.2 mm 5 mps 722 mmHg 68%
    11:00 +27°C° 0.6 mm 5 mps 721 mmHg 68%
    12:00 +27°C° 0.6 mm 5 mps 720 mmHg 67%
    13:00 +28°C° 0.6 mm 5 mps 720 mmHg 67%
    14:00 +27°C° 1.3 mm 5 mps 719 mmHg 70%
    15:00 +27°C° 1.3 mm 5 mps 719 mmHg 73%
    16:00 +26°C° 1.3 mm 5 mps 718 mmHg 76%
    17:00 +23°C° 1.2 mm 5 mps 718 mmHg 79%
    18:00 +22°C° 1.2 mm 5 mps 719 mmHg 83%
    19:00 +20°C° 1.2 mm 5 mps 719 mmHg 86%
    20:00 +17°C° 0.1 mm 5 mps 720 mmHg 86%
    21:00 +15°C° 0.1 mm 5 mps 720 mmHg 86%
    22:00 +13°C° 0.1 mm 5 mps 721 mmHg 85%
    23:00 +12°C° 0 mm 4 mps 721 mmHg 83%

    22 June, Friday

    Time Temperature Precipitation Wind Pressure Humidity
    00:00 +11°C° 0 mm 4 mps 722 mmHg 81%
    01:00 +9°C° 0 mm 3 mps 722 mmHg 78%
    02:00 +8°C° 0 mm 3 mps 722 mmHg 80%
    03:00 +8°C° 0 mm 3 mps 722 mmHg 81%
    04:00 +7°C° 0 mm 3 mps 722 mmHg 82%
    05:00 +8°C° 0 mm 3 mps 723 mmHg 79%
    06:00 +8°C° 0 mm 4 mps 723 mmHg 75%
    07:00 +9°C° 0 mm 5 mps 723 mmHg 71%
    08:00 +10°C° 0 mm 5 mps 723 mmHg 67%
    09:00 +11°C° 0 mm 6 mps 723 mmHg 62%
    10:00 +13°C° 0 mm 6 mps 723 mmHg 57%
    11:00 +12°C° 0.1 mm 7 mps 723 mmHg 57%
    12:00 +12°C° 0.1 mm 7 mps 723 mmHg 58%
    13:00 +12°C° 0.1 mm 7 mps 723 mmHg 58%
    14:00 +12°C° 0 mm 7 mps 723 mmHg 60%
    15:00 +12°C° 0 mm 7 mps 723 mmHg 61%
    16:00 +13°C° 0 mm 6 mps 723 mmHg 63%
    17:00 +13°C° 0.1 mm 5 mps 723 mmHg 68%
    18:00 +12°C° 0.1 mm 4 mps 723 mmHg 74%
    19:00 +12°C° 0.1 mm 3 mps 723 mmHg 79%
    20:00 +11°C° 0.1 mm 3 mps 723 mmHg 83%
    21:00 +10°C° 0.1 mm 3 mps 724 mmHg 86%
    22:00 +8°C° 0.1 mm 2 mps 724 mmHg 89%
    23:00 +8°C° 0 mm 3 mps 724 mmHg 90%

    23 June, Saturday

    Time Temperature Precipitation Wind Pressure Humidity
    00:00 +8°C° 0 mm 3 mps 723 mmHg 90%
    01:00 +8°C° 0 mm 3 mps 723 mmHg 91%
    02:00 +7°C° 0 mm 3 mps 723 mmHg 91%
    03:00 +7°C° 0 mm 3 mps 723 mmHg 92%
    04:00 +7°C° 0 mm 3 mps 723 mmHg 93%
    05:00 +8°C° 0.1 mm 3 mps 724 mmHg 90%
    06:00 +8°C° 0.1 mm 4 mps 724 mmHg 88%
    07:00 +10°C° 0.1 mm 4 mps 724 mmHg 85%
    08:00 +10°C° 0.3 mm 5 mps 724 mmHg 83%
    09:00 +10°C° 0.3 mm 5 mps 725 mmHg 80%
    10:00 +12°C° 0.3 mm 5 mps 725 mmHg 78%
    11:00 +13°C° 0.2 mm 5 mps 725 mmHg 73%
    12:00 +14°C° 0.2 mm 5 mps 725 mmHg 69%
    13:00 +15°C° 0.2 mm 5 mps 725 mmHg 65%
    14:00 +15°C° 0.2 mm 5 mps 725 mmHg 66%
    15:00 +14°C° 0.2 mm 5 mps 725 mmHg 67%
    16:00 +14°C° 0.2 mm 5 mps 725 mmHg 68%
    17:00 +14°C° 0.1 mm 4 mps 725 mmHg 72%
    18:00 +13°C° 0.1 mm 3 mps 725 mmHg 75%
    19:00 +13°C° 0.1 mm 2 mps 725 mmHg 79%
    20:00 +12°C° 0 mm 2 mps 725 mmHg 82%
    21:00 +10°C° 0 mm 2 mps 725 mmHg 86%
    22:00 +8°C° 0 mm 2 mps 725 mmHg 89%
    23:00 +8°C° 0 mm 2 mps 725 mmHg 90%

    24 June, Sunday

    Time Temperature Precipitation Wind Pressure Humidity
    00:00 +8°C° 0 mm 2 mps 725 mmHg 90%
    01:00 +7°C° 0 mm 2 mps 725 mmHg 90%
    02:00 +7°C° 0 mm 2 mps 725 mmHg 91%
    03:00 +7°C° 0 mm 2 mps 725 mmHg 91%
    04:00 +7°C° 0 mm 2 mps 725 mmHg 92%
    05:00 +8°C° 0 mm 2 mps 726 mmHg 88%
    06:00 +10°C° 0 mm 2 mps 726 mmHg 85%
    07:00 +12°C° 0 mm 2 mps 726 mmHg 81%
    08:00 +13°C° 0.1 mm 2 mps 726 mmHg 80%
    09:00 +13°C° 0.1 mm 2 mps 726 mmHg 79%
    10:00 +14°C° 0.1 mm 2 mps 726 mmHg 77%
    11:00 +14°C° 0.1 mm 2 mps 726 mmHg 75%
    12:00 +14°C° 0.1 mm 3 mps 726 mmHg 72%
    13:00 +16°C° 0.1 mm 3 mps 726 mmHg 69%
    14:00 +16°C° 0.1 mm 3 mps 726 mmHg 69%
    15:00 +16°C° 0.1 mm 3 mps 726 mmHg 69%
    16:00 +16°C° 0.1 mm 3 mps 726 mmHg 68%
    17:00 +14°C° 0 mm 3 mps 726 mmHg 73%
    18:00 +14°C° 0 mm 2 mps 726 mmHg 77%
    19:00 +14°C° 0 mm 2 mps 726 mmHg 81%
    20:00 +12°C° 0 mm 2 mps 726 mmHg 85%
    21:00 +11°C° 0 mm 1 mps 726 mmHg 88%
    22:00 +9°C° 0 mm 1 mps 726 mmHg 91%
    23:00 +9°C° 0 mm 1 mps 726 mmHg 91%
    Show more